DateTimeUTC,F1_A11,F1_S11,BsB_S11,BsG_S11,BsR_S11,BbsB_S11,BbsG_S11,BbsR_S11,BaB_A11,BaG_A11,BaR_A11,Tu_S11,T_S11,Uu_S11,U_S11,P_S11,T1_A11
2021-07-08T15:00:00Z,00000200,20000000,,,,,,,-000.04,-000.10,0000.00,18.3,24.9,03.3,02.2,0658.5,31.0
2021-07-08T15:01:00Z,00000200,20000000,,,,,,,0000.15,0000.13,0000.21,18.2,24.9,03.3,02.2,0658.6,30.9
2021-07-08T15:02:00Z,00000200,20000000,,,,,,,-000.01,0000.06,-000.09,18.2,24.9,03.3,02.2,0658.6,30.9
2021-07-08T15:03:00Z,00000200,60000000,,,,,,,0000.40,0000.25,0000.21,18.2,24.9,03.3,02.2,0658.6,30.9
2021-07-08T15:04:00Z,00000200,40000000,0000.69,-000.08,0000.02,-000.42,0000.10,-000.20,0000.29,-000.09,0000.05,18.2,24.6,03.7,02.5,0659.6,30.9
2021-07-08T15:05:00Z,00000200,00000000,0000.58,0000.04,-000.07,-000.01,0000.10,-000.11,-000.60,0000.23,-000.00,18.2,24.6,03.7,02.5,0659.5,30.9
2021-07-08T15:06:00Z,00000200,00000000,0000.25,0000.25,0000.10,0000.09,-000.03,0000.07,0000.37,-000.10,0000.16,18.2,24.6,03.6,02.4,0659.7,31.0
2021-07-08T15:07:00Z,00000200,00000000,0000.38,0000.20,-000.18,-000.23,0000.06,0000.38,-000.28,0000.20,-000.48,18.3,24.6,03.6,02.4,0659.6,31.0
2021-07-08T15:08:00Z,00000200,00000000,0001.11,0000.42,-000.12,0000.09,0000.16,0000.19,0000.38,-000.29,0000.20,18.4,24.6,03.4,02.3,0659.7,31.0
2021-07-08T15:09:00Z,00000200,00000000,0000.33,0000.16,-000.08,0000.51,-000.08,-000.05,-000.20,0000.40,0000.11,18.4,24.7,03.4,02.3,0659.7,31.0
2021-07-08T15:10:00Z,00000200,00000000,0000.76,0000.11,-000.11,0000.12,0000.12,0000.03,0000.42,-000.04,-000.03,18.5,24.7,03.4,02.3,0659.7,31.0
2021-07-08T15:11:00Z,00000200,00000000,0000.60,0000.05,-000.29,0000.04,-000.22,0000.19,-000.20,-000.10,0000.37,18.5,24.7,03.6,02.4,0659.8,31.0
2021-07-08T15:12:00Z,00000200,00000000,0000.29,0000.05,0000.20,-000.05,0000.13,-000.28,-000.02,-000.14,-000.49,18.4,24.7,03.5,02.4,0659.8,31.0
2021-07-08T15:13:00Z,00000200,00000000,-000.29,0000.32,-000.12,-000.16,-000.09,-000.32,0000.02,0000.13,0000.02,18.4,24.6,03.6,02.4,0659.8,31.0
2021-07-08T15:14:00Z,00000200,00000000,-000.70,-000.26,-000.04,0000.08,0000.08,-000.12,-000.30,-000.38,0000.24,18.3,24.6,03.6,02.5,0659.7,30.9
2021-07-08T15:15:00Z,00000200,00000000,-000.21,0000.15,0000.24,0000.17,0000.08,-000.06,-000.15,0000.18,-000.17,18.3,24.5,03.6,02.4,0659.7,31.0
2021-07-08T15:16:00Z,00000200,00000000,0000.47,-000.20,0000.09,-000.06,0000.01,0000.14,0000.44,-000.03,0000.06,18.2,24.5,03.5,02.4,0659.8,30.9
2021-07-08T15:17:00Z,00000200,00000000,0000.29,0000.39,0000.02,-000.29,0000.35,-000.09,0000.11,0000.42,-000.04,18.2,24.5,03.7,02.5,0659.8,30.9
2021-07-08T15:18:00Z,00000200,00000000,0000.65,0000.09,0000.08,0000.18,0000.15,0000.07,-000.05,-000.25,0000.19,18.2,24.5,03.7,02.5,0659.8,30.9
2021-07-08T15:19:00Z,00000200,00000000,0000.41,0000.46,-000.07,-000.01,-000.00,0000.15,0000.32,0000.39,-000.04,18.1,24.5,03.6,02.5,0659.7,30.9
2021-07-08T15:20:00Z,00000200,00000000,0000.51,0000.12,-000.18,0000.04,-000.27,-000.02,-000.27,0000.05,0000.40,18.1,24.4,03.6,02.5,0659.8,30.9
2021-07-08T15:21:00Z,00000200,00000000,-000.04,-000.00,-000.22,-000.10,0000.31,-000.06,0000.30,0000.09,0000.17,18.2,24.5,03.7,02.5,0659.9,30.9
2021-07-08T15:22:00Z,00000200,00000000,0000.54,-000.01,0000.12,-000.15,0000.06,0000.22,0000.24,-000.04,-000.35,18.3,24.5,03.7,02.5,0659.7,31.0
2021-07-08T15:23:00Z,00000200,00000000,-000.42,0000.23,0000.05,-000.02,0000.08,0000.12,0000.01,0000.07,0000.28,18.3,24.5,03.6,02.4,0659.9,31.0
2021-07-08T15:24:00Z,00000200,00000000,0000.26,-000.24,-000.04,-000.09,0000.21,0000.24,-000.53,-000.16,0000.05,18.4,24.6,03.6,02.5,0659.8,31.0
2021-07-08T15:25:00Z,00000200,00000000,-000.06,0000.06,-000.05,0000.32,-000.05,-000.24,0000.69,0000.52,-000.02,18.5,24.6,03.6,02.5,0660.0,31.0
2021-07-08T15:26:00Z,00000200,00000000,-000.71,0000.33,-000.01,-000.35,0000.08,-000.16,-000.16,-000.12,0000.17,18.6,24.7,03.6,02.5,0659.8,31.0
2021-07-08T15:27:00Z,00000200,00000000,0000.70,0000.03,0000.13,-000.26,-000.05,0000.15,-000.05,-000.35,-000.30,18.6,24.7,03.4,02.4,0659.8,31.0
2021-07-08T15:28:00Z,00000200,00000000,-000.62,0000.35,-000.20,-000.08,0000.06,0000.00,-000.29,0000.03,-000.00,18.6,24.7,03.4,02.4,0659.9,31.0
2021-07-08T15:29:00Z,00000200,00000000,0000.16,0000.05,0000.13,-000.11,0000.14,0000.00,0000.18,0000.22,0000.14,18.6,24.7,03.5,02.4,0660.0,31.0
2021-07-08T15:30:00Z,00000200,00000000,0000.25,-000.00,-000.09,0000.47,-000.00,0000.18,-000.50,-000.26,-000.45,18.5,24.7,03.5,02.4,0659.8,31.0
2021-07-08T15:31:00Z,00000200,00000000,0000.52,0000.06,-000.07,-000.71,-000.02,0000.23,0000.20,0000.18,0000.13,18.5,24.6,03.5,02.4,0659.7,31.0
2021-07-08T15:32:00Z,00000200,00000000,-000.26,0000.24,0000.29,0000.36,0000.01,0000.04,0000.19,0000.16,0000.22,18.4,24.6,03.6,02.5,0659.9,31.0
2021-07-08T15:33:00Z,00000200,00000000,0000.12,0000.10,-000.14,0000.35,0000.22,0000.25,-000.35,-000.49,-000.13,18.4,24.6,03.6,02.5,0659.7,31.0
2021-07-08T15:34:00Z,00000200,00000000,0000.84,0000.12,-000.28,-000.42,0000.49,-000.13,0000.53,0000.00,0000.02,18.3,24.6,03.5,02.4,0659.7,30.9
2021-07-08T15:35:00Z,00000200,00000000,0000.51,-000.03,-000.19,-000.27,0000.04,0000.03,-000.17,0000.26,0000.02,18.3,24.6,03.5,02.4,0659.8,30.9
2021-07-08T15:36:00Z,00000200,00000000,-000.14,0000.00,-000.01,-000.06,0000.19,0000.05,0000.07,0000.10,0000.13,18.4,24.6,03.5,02.4,0660.0,31.0
2021-07-08T15:37:00Z,00000200,00000000,0000.83,0000.27,-000.16,-000.09,-000.05,0000.17,0000.24,0000.28,0000.34,18.5,24.6,03.5,02.4,0659.9,31.0
2021-07-08T15:38:00Z,00000200,00000000,0001.28,0000.02,-000.11,0000.42,-000.35,-000.09,-000.04,-000.30,-000.29,18.5,24.7,03.7,02.5,0659.9,31.0
2021-07-08T15:39:00Z,00000200,00000000,0000.17,0000.09,0000.07,-000.06,0000.03,0000.17,0000.00,0000.05,0000.02,18.6,24.7,03.5,02.4,0659.9,31.0
2021-07-08T15:40:00Z,00000200,00000000,0000.11,0000.23,-000.29,-000.03,0000.05,0000.04,0000.08,0000.24,-000.12,18.6,24.7,03.5,02.4,0659.9,31.0
2021-07-08T15:41:00Z,00000200,00000000,0000.07,-000.04,-000.09,-000.63,-000.22,-000.01,-000.10,-000.31,-000.04,18.5,24.7,03.4,02.4,0660.0,31.0
2021-07-08T15:42:00Z,00000200,00000000,0000.41,0000.01,0000.04,0000.49,0000.20,0000.36,-000.05,0000.02,0000.28,18.5,24.6,03.6,02.4,0660.2,31.0
2021-07-08T15:43:00Z,00000200,00000000,0000.48,0000.32,0000.02,0000.20,0000.07,-000.15,0000.25,-000.02,0000.02,18.4,24.6,03.7,02.5,0660.0,31.0
2021-07-08T15:44:00Z,00000200,00000000,-000.29,0000.24,-000.32,-000.10,0000.04,-000.00,0000.02,0000.19,-000.29,18.4,24.6,03.5,02.4,0660.2,31.0
2021-07-08T15:45:00Z,00000200,00000000,0000.02,0000.40,-000.04,0000.42,0000.08,-000.11,0000.06,0000.34,0000.05,18.4,24.6,03.8,02.6,0660.0,31.0
2021-07-08T15:46:00Z,00000200,00000000,0000.07,0000.11,-000.22,-000.13,-000.08,0000.33,-000.33,-000.33,-000.04,18.3,24.5,03.7,02.5,0659.9,31.0
2021-07-08T15:47:00Z,00000200,00000000,0000.57,-000.09,-000.22,-000.21,0000.04,0000.02,0000.04,-000.20,0000.05,18.3,24.5,03.6,02.4,0660.0,30.9
2021-07-08T15:48:00Z,00000200,00000000,0000.15,0000.09,0000.26,-000.21,0000.10,0000.43,0000.05,0000.18,0000.13,18.3,24.5,03.6,02.5,0659.9,30.9
2021-07-08T15:49:00Z,00000200,00000000,0000.20,0000.13,-000.03,-000.17,0000.06,0000.21,-000.00,-000.06,-000.12,18.2,24.5,03.6,02.5,0660.0,30.9
2021-07-08T15:50:00Z,00000200,00000000,-000.36,0000.14,-000.27,0000.00,-000.20,-000.12,0000.32,0000.02,0000.09,18.2,24.5,03.5,02.4,0659.9,30.9
2021-07-08T15:51:00Z,00000200,00000000,0000.26,0000.22,-000.05,0000.01,-000.12,0000.17,-000.09,0000.19,-000.00,18.3,24.5,03.5,02.4,0659.9,31.0
2021-07-08T15:52:00Z,00000200,00000000,0000.14,-000.03,-000.01,-000.03,0000.24,0000.23,0000.14,0000.08,0000.18,18.4,24.6,03.5,02.4,0660.0,31.0
2021-07-08T15:53:00Z,00000200,00000000,0000.37,0000.30,-000.14,-000.05,-000.06,-000.22,0000.09,-000.25,0000.21,18.4,24.6,03.6,02.5,0660.0,31.0
2021-07-08T15:54:00Z,00000200,00000000,0000.62,0000.11,0000.03,0000.02,0000.18,0000.03,0000.13,0000.20,-000.03,18.5,24.6,03.5,02.4,0660.0,31.0
2021-07-08T15:55:00Z,00000200,00000000,-000.67,0000.16,-000.11,0000.35,0000.22,-000.28,0000.01,0000.24,0000.22,18.6,24.7,03.6,02.5,0660.1,31.0
2021-07-08T15:56:00Z,00000200,00000000,0001.12,-000.07,0000.08,0000.27,-000.09,0000.29,0000.03,-000.03,0000.20,18.6,24.7,03.7,02.5,0660.1,31.0
2021-07-08T15:57:00Z,00000200,40000000,,,,,,,0000.01,0000.03,-000.30,18.7,24.7,04.0,02.8,0660.2,31.0
2021-07-08T15:58:00Z,00000200,60000000,,,,,,,-000.45,-000.16,-000.20,18.4,24.8,03.6,02.4,0659.2,31.0
2021-07-08T15:59:00Z,00000200,20000000,,,,,,,0000.14,-000.16,-000.27,18.4,24.9,03.6,02.4,0659.0,31.0
